Weather History for Casper, WY

Change the Weather History Date:

Friday, November 15, 2013

  Actual Average Record
Temperature  
Mean Temperature 41 °F 33 °F  
Max Temperature 51 °F 45 °F 69 °F (1999)
Min Temperature 30 °F 22 °F -12 °F (1955)
Degree Days  
Heating Degree Days 24 32  
Month to date heating degree days 421 425  
Since 1 July heating degree days 1310 1324  
Cooling Degree Days 0 0  
Month to date cooling degree days 0 0  
Year to date cooling degree days 618 422  
Moisture  
Dew Point 21 °F    
Average Humidity 49    
Maximum Humidity 64    
Minimum Humidity 34    
Precipitation  
Precipitation 0.00 in 0.02 in 0.11 in (1996)
Month to date precipitation 0.01 0.43  
Year to date precipitation 13.71 11.70  
Snow  
Snow 0.00 in 0.40 in - ()
Month to date snowfall 0.1 5.0  
Since 1 July snowfall 21.3 14.2  
Since 1 September snowfall 21.3 14.2  
Snow Depth 0.00 in    
Sea Level Pressure  
Sea Level Pressure 29.52 in    
Wind  
Wind Speed 17 mph (SW)    
Max Wind Speed 30 mph    
Max Gust Speed 38 mph    
Visibility 10 miles    
Events      
T = Trace of Precipitation, MM = Missing Value Source: NWS Daily Summary

Daily Weather History Graph

Daily Weather History Graph

Search for Another Location

Airport:

Trip Planner

Search our weather history database for the weather conditions in past years. The results will help you decide how hot, cold, wet, or windy it might be!

Date:

Astronomy

Nov. 15, 2013 Rise Set
Actual Time 6:58 AM MST 4:42 PM MST
Civil Twilight 6:27 AM MST 5:12 PM MST
Nautical Twilight 5:53 AM MST 5:47 PM MST
Astronomical Twilight 5:20 AM MST 6:20 PM MST
Moon 3:42 PM MST (11/15) 4:55 AM MST (11/15)
Length of Visible Light 10h 44m
Length of Day
9h 43m
Waxing Gibbous, 97% of the Moon is Illuminated
Nov 15
Waxing Gibbous
Nov 17
Full
Nov 25
Last Quarter
Dec 2
New
Dec 9
First Quarter

Hourly Weather History & Observations

Time (MST) Temp. Windchill Dew Point Humidity Pressure Visibility Wind Dir Wind Speed Gust Speed Precip Events Conditions
12:53 AM 39.9 °F 32.1 °F 21.0 °F 47% 29.62 in 10.0 mi WSW 13.8 mph - N/A   Clear
1:53 AM 42.1 °F 34.9 °F 21.9 °F 45% 29.58 in 10.0 mi SW 13.8 mph - N/A   Partly Cloudy
2:53 AM 37.0 °F 29.8 °F 21.0 °F 52% 29.61 in 10.0 mi West 10.4 mph - N/A   Partly Cloudy
3:53 AM 36.0 °F 28.0 °F 19.9 °F 52% 29.61 in 10.0 mi WSW 11.5 mph - N/A   Clear
4:53 AM 34.0 °F 25.5 °F 19.9 °F 56% 29.63 in 10.0 mi WSW 11.5 mph - N/A   Clear
5:53 AM 36.0 °F 28.5 °F 19.0 °F 50% 29.63 in 10.0 mi WSW 10.4 mph - N/A   Clear
6:53 AM 37.0 °F 28.5 °F 18.0 °F 46% 29.63 in 10.0 mi SW 13.8 mph - N/A   Overcast
7:53 AM 37.9 °F 30.0 °F 17.1 °F 43% 29.62 in 10.0 mi SW 12.7 mph - N/A   Scattered Clouds
8:53 AM 42.1 °F 34.2 °F 18.0 °F 38% 29.59 in 10.0 mi SW 16.1 mph - N/A   Partly Cloudy
9:53 AM 42.1 °F 33.6 °F 18.0 °F 38% 29.57 in 10.0 mi SW 18.4 mph - N/A   Clear
10:53 AM 46.0 °F 38.3 °F 19.9 °F 35% 29.56 in 10.0 mi SW 20.7 mph 27.6 mph N/A   Clear
11:53 AM 48.9 °F - 24.1 °F 38% 29.49 in 10.0 mi WSW 19.6 mph 28.8 mph N/A   Clear
12:53 PM 48.0 °F - 23.0 °F 37% 29.46 in 10.0 mi SW 18.4 mph 27.6 mph N/A   Clear
1:53 PM 48.0 °F - 21.9 °F 36% 29.44 in 10.0 mi WSW 26.5 mph 34.5 mph N/A   Clear
2:53 PM 48.0 °F - 24.1 °F 39% 29.44 in 10.0 mi WSW 21.9 mph 31.1 mph N/A   Clear
3:53 PM 46.0 °F 37.6 °F 21.9 °F 39% 29.44 in 10.0 mi WSW 24.2 mph 33.4 mph N/A   Clear
4:53 PM 41.0 °F 32.8 °F 23.0 °F 49% 29.47 in 10.0 mi WSW 16.1 mph - N/A   Clear
5:53 PM 37.9 °F 29.2 °F 24.1 °F 57% 29.47 in 10.0 mi SW 15.0 mph - N/A   Clear
6:53 PM 36.0 °F 27.1 °F 25.0 °F 64% 29.46 in 10.0 mi SW 13.8 mph - N/A   Clear
7:53 PM 36.0 °F 26.3 °F 25.0 °F 64% 29.46 in 10.0 mi SSW 16.1 mph - N/A   Clear
8:53 PM 36.0 °F 25.3 °F 24.1 °F 62% 29.43 in 10.0 mi SW 19.6 mph - N/A   Clear
9:53 PM 32.0 °F 21.6 °F 21.9 °F 66% 29.44 in 10.0 mi SW 15.0 mph - N/A   Clear
10:53 PM 32.0 °F 19.8 °F 19.0 °F 59% 29.42 in 10.0 mi SSW 20.7 mph - N/A   Clear
11:53 PM 30.0 °F 17.9 °F 17.1 °F 59% 29.40 in 10.0 mi SW 18.4 mph - N/A   Clear